OBJECT Y, 68438

Orbit data source: Space-Track

You're viewing an Uncataloged Satellite

Recently launched and/or uncataloged satellites may have evolving metadata. Metadata may include but not limited to: Owner, Maufacturer, Bus, Motor, and Mission.

OBJECT Y, 68438 is a satellite in SSO that was launched on Mon, 30 Mar 2026 UTC via an FALCON 9 launch vehicle from the Air Force Western Test Range (AFWTR). Unknown objects in Earth's orbit typically refer to objects detected orbiting the Earth but have not yet been identified or cataloged. These objects could be anything from previously untracked satellites, spent rocket stages, debris from satellite collisions, or even natural meteoroids temporarily captured by Earth's gravity.

Loading next visibility...
Identifier
68438, 2026-067Y
Orbit
SSO
Country
Flag of TBDTBD
Related business
None
Manufacturer
Unknown
Mission
Operational spacecraft
Bus & Motor
Unknown
Mass
Unknown
Launch date (UTC)
2026-03-30 (1 month ago)
Launch vehicle
FALCON 9
Launch site
Air Force Western Test Range (AFWTR)
Object type
Unknown
Shape & HBR
Unknown shape, 1.1 m
Radar Cross Section
RCS unknown

Expand to show TLE details & history
Last TLE update: 20 hours ago

TLE from 20 hours ago
0 OBJECT Y
1 68438U 26067Y   26126.87464454  .00012030  00000-0  58253-3 0  9991
2 68438  97.4510  85.9514 0004034 148.9150 211.2323 15.18701623  5674
Epoch: 2026-05-06T20:59Z
TLE epoch observation values (Epoch: 2026-05-06T20:59:29.288Z)
Latitude
-0.00007°
Longitude
-93.6495°
Altitude
515.228 km
Speed
7.605 km/s
True Right ascension
05h 43m 48s
True Declination
0° 00' 00"
Sunlit
Object was in daylight at epoch
Visualization orbit readout
Latitude
Unknown
Longitude
Unknown
Altitude
Unknown
Speed
Unknown
Apparent Right ascension
Unknown
Apparent Declination
Unknown
Sunlit
N/A
Visualization observer readout
Local Sidereal Time
01:02:52
Azimuth
Unknown
Elevation
Unknown
Doppler factor
Unknown
Orbital elements
Apogee altitude
509.51 km
Perigee altitude
503.956 km
Semi-major axis
6,884.87 km
Eccentricity
0.0004
Inclination
97.451°
RAAN
85.9514°
Arg. of periapsis
148.915°
True anomaly
211.20834°
Mean anomaly
211.2323°
Eccentric anomaly
211.22032°
Mean motion
3.79926 °/min
Orbital period
94.76 mins
BSTAR
0.00058253
Loading maneuver chart data...
Computing Atmospheric mass density...
Loading historical data...
Loading historical data...
Loading historical data...
Loading historical data...
Loading historical data...
Loading historical data...
Loading historical data...

Documentation

Showing up to 5 results
|